Terminal Aerodrome Forecast
Issued by NWS

Home | Current Version | Previous Version | Graphics & Text | Print | Product List | Glossary On
Versions: 1 2 3 4 5 6 7 8 9 10 11 12 13 14 15 16 17 18 19 20 21 22 23 24
864
FTUS43 KABR 111419 AAB
TAFMBG
TAF AMD
KMBG 111419Z 1114/1212 14009KT 3/4SM -SN BR OVC019
      TEMPO 1114/1117 1SM -SN OVC015
     FM120200 36009KT P6SM OVC015
     FM120900 35009KT P6SM OVC050=

USA.gov is the U.S. government's official web portal to all federal, state and local government web resources and services.